sat.trackr.live / text

‹ back to catalog

STARLINK-32603

NORAD 62072 · 2024-217R

PAYLOAD ACTIVE UNKNOWN

§ Identity

Operator
Country
US
Launch date
2024-11-24
Launch site
AFWTR
Launch vehicle
Mass (kg)
RCS (m²)

Purposes: comms

External: N2YO · Heavens-Above · Gunter

§ Orbital elements

Epoch: 2026-09-21T14:20:45.241440Z

Period
93.85 min
Inclination
53.1629°
Eccentricity
0.0001460
Mean motion
15.34405282 rev/d
Perigee alt
461.7 km
Apogee alt
463.7 km
Semi-major
6,840.8 km
B*
3.7748e-4
RAAN
0.5262°
Arg perigee
93.8026°
Mean anomaly
266.3143°
Rev number
10,351

§ Raw data

STARLINK-326031 62072U 24217R   26264.59774585  .00012401  00000+0  37748-3 0  99922 62072  53.1629   0.5262 0001460  93.8026 266.3143 15.34405282103518

JSON: /api/v1/satellites/62072 · /tle

For live sub-satellite position, see the globe view (requires WebGL).

§ Visibility from observer

Set your observer location to see the next 7 days of passes ≥ 10°. The values pass through the URL so the page stays shareable.

No JS? Fill the form by hand. The geolocation button needs JavaScript.